Time,TemperatureF,DewpointF,PressureIn,WindDirection,WindDirectionDegrees,WindSpeedMPH,WindSpeedGustMPH,Humidity,HourlyPrecipIn,Conditions,Clouds,dailyrainin,SoftwareType,DateUTC
2013-03-10 00:00:00,31.0,27.5,30.07,North,0,0.0,0.0,87,0.00,,,0.00,WUHU216HW,2013-03-10 09:00:00,
2013-03-10 00:07:00,30.8,27.4,30.07,North,0,0.0,0.0,87,0.00,,,0.00,WUHU216HW,2013-03-10 09:07:00,
2013-03-10 00:12:00,30.8,27.4,30.08,North,0,0.0,0.0,87,0.00,,,0.00,WUHU216HW,2013-03-10 09:12:00,
2013-03-10 00:17:00,30.8,27.4,30.08,North,0,0.0,0.0,87,0.00,,,0.00,WUHU216HW,2013-03-10 09:17:00,
2013-03-10 00:22:00,30.8,27.4,30.07,North,0,0.0,0.0,87,0.00,,,0.00,WUHU216HW,2013-03-10 09:22:00,
2013-03-10 00:27:00,30.8,27.4,30.07,North,0,0.0,0.0,87,0.00,,,0.00,WUHU216HW,2013-03-10 09:27:00,
2013-03-10 00:32:00,30.6,26.9,30.07,North,0,0.0,0.0,86,0.00,,,0.00,WUHU216HW,2013-03-10 09:32:00,
2013-03-10 00:37:00,30.4,26.7,30.07,North,0,0.0,0.0,86,0.00,,,0.00,WUHU216HW,2013-03-10 09:37:00,
2013-03-10 00:42:00,30.1,26.4,30.07,North,0,0.0,0.0,86,0.00,,,0.00,WUHU216HW,2013-03-10 09:42:00,
2013-03-10 00:47:00,29.9,26.2,30.08,North,0,0.0,0.0,86,0.00,,,0.00,WUHU216HW,2013-03-10 09:47:00,
2013-03-10 00:52:00,29.7,26.0,30.08,ESE,113,1.8,1.8,86,0.00,,,0.00,WUHU216HW,2013-03-10 09:52:00,
2013-03-10 00:57:00,29.5,25.8,30.08,East,90,0.4,1.8,86,0.00,,,0.00,WUHU216HW,2013-03-10 09:57:00,
2013-03-10 01:02:00,29.2,25.5,30.08,ESE,113,2.2,2.2,86,0.00,,,0.00,WUHU216HW,2013-03-10 10:02:00,
2013-03-10 01:08:00,29.0,25.3,30.08,ESE,113,1.1,2.2,86,0.00,,,0.00,WUHU216HW,2013-03-10 10:08:00,
2013-03-10 01:18:00,28.4,24.8,30.08,ESE,113,0.4,1.6,86,0.00,,,0.00,WUHU216HW,2013-03-10 10:18:00,
2013-03-10 01:23:00,28.1,24.1,30.08,SE,135,1.1,1.6,85,0.00,,,0.00,WUHU216HW,2013-03-10 10:23:00,
2013-03-10 01:28:00,27.9,23.9,30.08,ESE,113,2.5,2.5,85,0.00,,,0.00,WUHU216HW,2013-03-10 10:28:00,
2013-03-10 01:34:00,27.7,23.8,30.08,SSE,158,1.6,2.7,85,0.00,,,0.00,WUHU216HW,2013-03-10 10:34:00,
2013-03-10 01:39:00,27.7,24.0,30.08,ESE,113,1.8,3.1,86,0.00,,,0.00,WUHU216HW,2013-03-10 10:39:00,
2013-03-10 01:44:00,27.7,24.0,30.08,SSE,158,1.6,3.1,86,0.00,,,0.00,WUHU216HW,2013-03-10 10:44:00,
2013-03-10 01:49:00,27.7,24.0,30.08,SSE,158,2.5,2.5,86,0.00,,,0.00,WUHU216HW,2013-03-10 10:49:00,
2013-03-10 01:54:00,27.5,23.9,30.08,SSE,158,2.5,2.7,86,0.00,,,0.00,WUHU216HW,2013-03-10 10:54:00,
2013-03-10 01:59:00,27.4,23.7,30.08,SSE,158,1.8,3.1,86,0.00,,,0.00,WUHU216HW,2013-03-10 10:59:00,
2013-03-10 03:04:00,27.4,23.9,30.08,SE,135,2.0,3.4,87,0.00,,,0.00,WUHU216HW,2013-03-10 11:04:00,
2013-03-10 03:10:00,27.4,23.9,30.08,SE,135,3.4,3.8,87,0.00,,,0.00,WUHU216HW,2013-03-10 11:10:00,
2013-03-10 03:15:00,27.2,23.8,30.08,ESE,113,2.5,3.8,87,0.00,,,0.00,WUHU216HW,2013-03-10 11:15:00,
2013-03-10 03:20:00,27.0,23.6,30.08,ESE,113,2.5,3.6,87,0.00,,,0.00,WUHU216HW,2013-03-10 11:20:00,
2013-03-10 03:25:00,27.0,23.6,30.08,South,180,2.0,4.0,87,0.00,,,0.00,WUHU216HW,2013-03-10 11:25:00,
2013-03-10 03:30:00,27.0,23.6,30.08,North,0,0.0,4.0,87,0.00,,,0.00,WUHU216HW,2013-03-10 11:30:00,
2013-03-10 03:35:00,27.0,23.6,30.08,North,0,0.0,2.0,87,0.00,,,0.00,WUHU216HW,2013-03-10 11:35:00,
2013-03-10 03:40:00,27.4,24.3,30.08,North,0,0.0,0.0,88,0.00,,,0.00,WUHU216HW,2013-03-10 11:40:00,
2013-03-10 03:45:00,27.5,24.5,30.08,North,0,0.0,0.0,88,0.00,,,0.00,WUHU216HW,2013-03-10 11:45:00,
2013-03-10 03:50:00,27.7,24.7,30.08,North,0,0.0,0.0,88,0.00,,,0.00,WUHU216HW,2013-03-10 11:50:00,
2013-03-10 03:55:00,27.7,24.3,30.08,North,0,0.0,0.0,87,0.00,,,0.00,WUHU216HW,2013-03-10 11:55:00,
2013-03-10 04:00:00,27.7,24.7,30.08,North,0,0.0,0.0,88,0.00,,,0.00,WUHU216HW,2013-03-10 12:00:00,
2013-03-10 04:06:00,27.9,24.5,30.08,North,0,0.0,0.0,87,0.00,,,0.00,WUHU216HW,2013-03-10 12:06:00,
2013-03-10 04:11:00,27.9,24.9,30.08,North,0,0.0,0.0,88,0.00,,,0.00,WUHU216HW,2013-03-10 12:11:00,
2013-03-10 04:16:00,28.4,25.4,30.08,North,0,0.0,0.0,88,0.00,,,0.00,WUHU216HW,2013-03-10 12:16:00,
2013-03-10 04:22:00,28.6,25.6,30.08,North,0,0.0,0.0,88,0.00,,,0.00,WUHU216HW,2013-03-10 12:22:00,
2013-03-10 04:27:00,28.8,25.8,30.08,North,0,0.0,0.0,88,0.00,,,0.00,WUHU216HW,2013-03-10 12:27:00,
2013-03-10 04:32:00,28.8,25.8,30.08,North,0,0.0,0.0,88,0.00,,,0.00,WUHU216HW,2013-03-10 12:32:00,
2013-03-10 04:37:00,28.8,25.8,30.08,North,0,0.0,0.0,88,0.00,,,0.00,WUHU216HW,2013-03-10 12:37:00,
2013-03-10 04:42:00,28.8,25.4,30.08,North,0,0.0,0.0,87,0.00,,,0.00,WUHU216HW,2013-03-10 12:42:00,
2013-03-10 04:47:00,28.8,25.4,30.07,SSW,203,3.6,3.6,87,0.00,,,0.00,WUHU216HW,2013-03-10 12:47:00,
2013-03-10 04:52:00,28.8,25.4,30.07,South,180,5.4,5.4,87,0.00,,,0.00,WUHU216HW,2013-03-10 12:52:00,
2013-03-10 04:57:00,28.8,25.1,30.07,South,180,1.8,5.4,86,0.00,,,0.00,WUHU216HW,2013-03-10 12:57:00,
2013-03-10 05:03:00,29.0,25.3,30.07,South,180,4.5,4.7,86,0.00,,,0.00,WUHU216HW,2013-03-10 13:03:00,
2013-03-10 05:08:00,29.2,25.5,30.07,South,180,6.9,6.9,86,0.00,,,0.00,WUHU216HW,2013-03-10 13:08:00,
2013-03-10 05:13:00,29.2,25.5,30.07,SSE,158,1.1,6.9,86,0.00,,,0.00,WUHU216HW,2013-03-10 13:13:00,
2013-03-10 05:18:00,29.2,25.5,30.07,ESE,113,2.5,6.9,86,0.00,,,0.00,WUHU216HW,2013-03-10 13:18:00,
2013-03-10 05:23:00,29.0,25.0,30.07,South,180,1.6,3.8,85,0.00,,,0.00,WUHU216HW,2013-03-10 13:23:00,
2013-03-10 05:28:00,29.0,24.8,30.07,SSE,158,4.9,5.8,84,0.00,,,0.00,WUHU216HW,2013-03-10 13:28:00,
2013-03-10 05:33:00,29.2,24.7,30.07,SSE,158,3.6,7.6,83,0.00,,,0.00,WUHU216HW,2013-03-10 13:33:00,
2013-03-10 05:39:00,29.2,24.7,30.07,South,180,2.9,7.4,83,0.00,,,0.00,WUHU216HW,2013-03-10 13:39:00,
2013-03-10 05:44:00,29.2,24.7,30.07,SSW,203,6.9,6.9,83,0.00,,,0.00,WUHU216HW,2013-03-10 13:44:00,
2013-03-10 05:49:00,29.3,24.5,30.07,SSW,203,6.0,7.8,82,0.00,,,0.00,WUHU216HW,2013-03-10 13:49:00,
2013-03-10 05:54:00,29.3,24.5,30.07,South,180,1.8,8.5,82,0.00,,,0.00,WUHU216HW,2013-03-10 13:54:00,
2013-03-10 05:59:00,29.5,24.7,30.07,ESE,113,2.5,8.5,82,0.00,,,0.00,WUHU216HW,2013-03-10 13:59:00,
2013-03-10 06:04:00,29.5,24.4,30.07,SE,135,4.7,7.2,81,0.00,,,0.00,WUHU216HW,2013-03-10 14:04:00,
2013-03-10 06:10:00,29.7,24.3,30.07,South,180,5.4,6.7,80,0.00,,,0.00,WUHU216HW,2013-03-10 14:10:00,
2013-03-10 06:15:00,29.9,24.1,30.07,SSW,203,2.5,9.2,79,0.00,,,0.00,WUHU216HW,2013-03-10 14:15:00,
2013-03-10 06:20:00,29.9,23.9,30.06,SW,225,8.9,9.6,78,0.00,,,0.00,WUHU216HW,2013-03-10 14:20:00,
2013-03-10 06:25:00,29.9,24.1,30.06,SE,135,4.0,9.6,79,0.00,,,0.00,WUHU216HW,2013-03-10 14:25:00,
2013-03-10 06:30:00,29.9,23.9,30.06,SE,135,6.5,8.5,78,0.00,,,0.00,WUHU216HW,2013-03-10 14:30:00,
2013-03-10 06:35:00,29.9,23.9,30.07,SE,135,3.6,8.5,78,0.00,,,0.00,WUHU216HW,2013-03-10 14:35:00,
2013-03-10 06:40:00,29.9,23.9,30.06,SSE,158,6.3,8.5,78,0.00,,,0.00,WUHU216HW,2013-03-10 14:40:00,
2013-03-10 06:45:00,29.9,23.5,30.07,SSW,203,2.5,6.9,77,0.00,,,0.00,WUHU216HW,2013-03-10 14:45:00,
2013-03-10 06:50:00,29.9,23.9,30.06,ESE,113,4.0,6.3,78,0.00,,,0.00,WUHU216HW,2013-03-10 14:50:00,
2013-03-10 06:56:00,30.1,23.7,30.07,SSE,158,4.0,5.1,77,0.00,,,0.00,WUHU216HW,2013-03-10 14:56:00,
2013-03-10 07:01:00,30.1,23.4,30.06,South,180,8.3,9.2,76,0.00,,,0.00,WUHU216HW,2013-03-10 15:01:00,
2013-03-10 07:06:00,30.1,23.4,30.06,SSE,158,11.4,11.4,76,0.00,,,0.00,WUHU216HW,2013-03-10 15:06:00,
2013-03-10 07:11:00,30.1,23.7,30.06,SSW,203,5.6,11.4,77,0.00,,,0.00,WUHU216HW,2013-03-10 15:11:00,
2013-03-10 07:16:00,30.1,23.7,30.06,SE,135,4.5,9.2,77,0.00,,,0.00,WUHU216HW,2013-03-10 15:16:00,
2013-03-10 07:21:00,30.1,23.7,30.06,SSE,158,3.8,11.9,77,0.00,,,0.00,WUHU216HW,2013-03-10 15:21:00,
2013-03-10 07:27:00,30.2,23.6,30.06,SSE,158,6.9,13.4,76,0.00,,,0.00,WUHU216HW,2013-03-10 15:27:00,
2013-03-10 07:32:00,30.2,23.6,30.06,South,180,5.1,13.4,76,0.00,,,0.00,WUHU216HW,2013-03-10 15:32:00,
2013-03-10 07:37:00,30.2,23.6,30.06,SSW,203,4.5,12.1,76,0.00,,,0.00,WUHU216HW,2013-03-10 15:37:00,
2013-03-10 07:42:00,30.2,23.6,30.06,SSE,158,11.4,12.1,76,0.00,,,0.00,WUHU216HW,2013-03-10 15:42:00,
2013-03-10 07:47:00,30.4,23.8,30.06,South,180,5.4,11.4,76,0.00,,,0.00,WUHU216HW,2013-03-10 15:47:00,
2013-03-10 07:52:00,30.4,23.8,30.06,SSE,158,1.8,6.3,76,0.00,,,0.00,WUHU216HW,2013-03-10 15:52:00,
2013-03-10 07:57:00,30.2,23.6,30.06,SE,135,4.0,6.3,76,0.00,,,0.00,WUHU216HW,2013-03-10 15:57:00,
2013-03-10 08:03:00,30.2,23.9,30.06,SSW,203,3.1,8.1,77,0.00,,,0.00,WUHU216HW,2013-03-10 16:03:00,
2013-03-10 08:08:00,30.2,23.6,30.05,SE,135,6.3,8.1,76,0.00,,,0.00,WUHU216HW,2013-03-10 16:08:00,
2013-03-10 08:13:00,30.1,23.7,30.05,SSE,158,6.3,8.1,77,0.00,,,0.00,WUHU216HW,2013-03-10 16:13:00,
2013-03-10 08:18:00,30.2,23.9,30.05,SE,135,6.3,8.1,77,0.00,,,0.00,WUHU216HW,2013-03-10 16:18:00,
2013-03-10 08:23:00,30.2,23.9,30.05,SE,135,4.5,6.3,77,0.00,,,0.00,WUHU216HW,2013-03-10 16:23:00,
2013-03-10 08:28:00,30.4,24.0,30.05,SE,135,4.7,8.5,77,0.00,,,0.00,WUHU216HW,2013-03-10 16:28:00,
2013-03-10 08:33:00,30.4,24.0,30.05,SSE,158,6.0,8.5,77,0.00,,,0.00,WUHU216HW,2013-03-10 16:33:00,
2013-03-10 08:38:00,30.4,23.8,30.05,SE,135,5.8,11.4,76,0.00,,,0.00,WUHU216HW,2013-03-10 16:38:00,
2013-03-10 08:44:00,30.6,24.0,30.05,SSE,158,6.3,11.4,76,0.00,,,0.00,WUHU216HW,2013-03-10 16:44:00,
2013-03-10 08:49:00,30.6,24.2,30.05,SW,225,1.8,11.0,77,0.00,,,0.00,WUHU216HW,2013-03-10 16:49:00,
2013-03-10 08:54:00,30.8,24.4,30.05,SSE,158,3.1,11.0,77,0.00,,,0.00,WUHU216HW,2013-03-10 16:54:00,
2013-03-10 08:59:00,30.8,24.4,30.05,South,180,5.8,8.7,77,0.00,,,0.00,WUHU216HW,2013-03-10 16:59:00,
2013-03-10 09:04:00,30.6,24.6,30.05,SSE,158,7.2,8.7,78,0.00,,,0.00,WUHU216HW,2013-03-10 17:04:00,
2013-03-10 09:09:00,30.6,24.6,30.05,WSW,248,2.7,7.2,78,0.00,,,0.00,WUHU216HW,2013-03-10 17:09:00,
2013-03-10 09:14:00,30.6,24.8,30.05,South,180,4.3,5.6,79,0.00,,,0.00,WUHU216HW,2013-03-10 17:14:00,
2013-03-10 09:20:00,30.6,24.8,30.05,ESE,113,2.9,7.4,79,0.00,,,0.00,WUHU216HW,2013-03-10 17:20:00,
2013-03-10 09:25:00,30.6,24.8,30.05,East,90,0.9,11.0,79,0.00,,,0.00,WUHU216HW,2013-03-10 17:25:00,
2013-03-10 09:30:00,30.6,25.5,30.05,South,180,7.2,11.0,81,0.00,,,0.00,WUHU216HW,2013-03-10 17:30:00,
2013-03-10 09:35:00,30.6,25.2,30.05,South,180,4.7,7.2,80,0.00,,,0.00,WUHU216HW,2013-03-10 17:35:00,
2013-03-10 09:40:00,30.6,25.5,30.05,South,180,6.9,7.2,81,0.00,,,0.00,WUHU216HW,2013-03-10 17:40:00,
2013-03-10 09:45:00,30.6,25.5,30.05,South,180,9.6,9.6,81,0.00,,,0.00,WUHU216HW,2013-03-10 17:45:00,
2013-03-10 09:50:00,30.8,25.9,30.05,South,180,6.9,9.6,82,0.00,,,0.00,WUHU216HW,2013-03-10 17:50:00,
2013-03-10 09:55:00,30.8,26.3,30.05,SSE,158,2.9,8.5,83,0.00,,,0.00,WUHU216HW,2013-03-10 17:55:00,
2013-03-10 10:01:00,30.8,26.6,30.05,ESE,113,3.4,7.4,84,0.00,,,0.00,WUHU216HW,2013-03-10 18:01:00,
2013-03-10 10:06:00,30.6,26.1,30.05,SSW,203,2.5,5.6,83,0.00,,,0.00,WUHU216HW,2013-03-10 18:06:00,
2013-03-10 10:11:00,30.6,26.1,30.05,South,180,2.5,6.3,83,0.00,,,0.00,WUHU216HW,2013-03-10 18:11:00,
2013-03-10 10:16:00,30.6,26.4,30.05,SSE,158,4.0,6.3,84,0.00,,,0.00,WUHU216HW,2013-03-10 18:16:00,
2013-03-10 10:21:00,30.6,26.6,30.05,SSW,203,4.9,5.6,85,0.00,,,0.00,WUHU216HW,2013-03-10 18:21:00,
2013-03-10 10:26:00,30.6,26.4,30.05,SSW,203,4.0,5.6,84,0.00,,,0.00,WUHU216HW,2013-03-10 18:26:00,
2013-03-10 10:31:00,30.8,26.6,30.05,South,180,4.3,4.5,84,0.00,,,0.00,WUHU216HW,2013-03-10 18:31:00,
2013-03-10 10:36:00,30.8,26.6,30.05,SSE,158,4.7,6.0,84,0.00,,,0.00,WUHU216HW,2013-03-10 18:36:00,
2013-03-10 10:42:00,30.8,26.8,30.05,SSE,158,2.9,8.1,85,0.00,,,0.00,WUHU216HW,2013-03-10 18:42:00,
2013-03-10 10:47:00,30.8,26.8,30.05,SSE,158,1.8,8.1,85,0.00,,,0.00,WUHU216HW,2013-03-10 18:47:00,
2013-03-10 10:51:00,30.8,26.8,30.05,SSW,203,3.1,6.9,85,0.00,,,0.00,WUHU216HW,2013-03-10 18:51:00,
2013-03-10 10:57:00,30.8,27.1,30.05,South,180,6.0,11.0,86,0.00,,,0.00,WUHU216HW,2013-03-10 18:57:00,
2013-03-10 11:01:00,31.0,27.3,30.05,South,180,5.4,11.0,86,0.00,,,0.00,WUHU216HW,2013-03-10 19:01:00,
2013-03-10 11:07:00,31.0,27.0,30.05,SSE,158,2.2,5.4,85,0.00,,,0.00,WUHU216HW,2013-03-10 19:07:00,
2013-03-10 11:13:00,31.0,27.0,30.05,SSW,203,4.5,4.7,85,0.00,,,0.00,WUHU216HW,2013-03-10 19:13:00,
2013-03-10 11:18:00,31.0,27.3,30.05,WSW,248,3.8,8.5,86,0.00,,,0.00,WUHU216HW,2013-03-10 19:18:00,
2013-03-10 11:23:00,31.1,27.5,30.05,SW,225,3.4,8.5,86,0.00,,,0.00,WUHU216HW,2013-03-10 19:23:00,
2013-03-10 11:28:00,31.1,27.5,30.05,SW,225,7.6,7.6,86,0.00,,,0.00,WUHU216HW,2013-03-10 19:28:00,
2013-03-10 11:33:00,31.3,27.6,30.05,SSW,203,2.9,7.6,86,0.00,,,0.00,WUHU216HW,2013-03-10 19:33:00,
2013-03-10 11:38:00,31.3,27.6,30.05,SSW,203,5.4,6.3,86,0.00,,,0.00,WUHU216HW,2013-03-10 19:38:00,
2013-03-10 11:43:00,31.3,27.6,30.05,SW,225,5.4,6.3,86,0.00,,,0.00,WUHU216HW,2013-03-10 19:43:00,
2013-03-10 11:48:00,31.5,27.8,30.05,SSW,203,2.5,5.6,86,0.00,,,0.00,WUHU216HW,2013-03-10 19:48:00,
2013-03-10 11:54:00,31.9,28.2,30.05,SSW,203,4.0,4.7,86,0.00,,,0.00,WUHU216HW,2013-03-10 19:54:00,
2013-03-10 11:59:00,32.0,28.4,30.05,SSE,158,2.0,4.0,86,0.00,,,0.00,WUHU216HW,2013-03-10 19:59:00,
2013-03-10 12:04:00,32.4,28.7,30.05,South,180,1.1,3.8,86,0.00,,,0.00,WUHU216HW,2013-03-10 20:04:00,
2013-03-10 12:09:00,32.6,28.9,30.05,SSW,203,1.3,3.1,86,0.00,,,0.00,WUHU216HW,2013-03-10 20:09:00,
2013-03-10 12:14:00,32.8,29.0,30.06,SSE,158,4.7,4.7,86,0.00,,,0.00,WUHU216HW,2013-03-10 20:14:00,
2013-03-10 12:19:00,33.1,29.3,30.06,SE,135,2.2,4.7,86,0.00,,,0.00,WUHU216HW,2013-03-10 20:19:00,
2013-03-10 12:24:00,33.5,29.3,30.06,SSW,203,1.1,3.6,85,0.00,,,0.00,WUHU216HW,2013-03-10 20:24:00,
2013-03-10 12:30:00,33.3,29.3,30.05,SE,135,2.0,3.6,85,0.00,,,0.00,WUHU216HW,2013-03-10 20:30:00,
2013-03-10 12:35:00,33.1,29.1,30.05,SSE,158,2.7,3.6,85,0.00,,,0.00,WUHU216HW,2013-03-10 20:35:00,
2013-03-10 12:40:00,33.1,29.1,30.05,SSW,203,2.7,3.6,85,0.00,,,0.00,WUHU216HW,2013-03-10 20:40:00,
2013-03-10 12:45:00,32.9,28.9,30.05,South,180,2.5,4.5,85,0.00,,,0.00,WUHU216HW,2013-03-10 20:45:00,
2013-03-10 12:50:00,33.1,29.1,30.06,SSW,203,3.8,4.5,85,0.00,,,0.00,WUHU216HW,2013-03-10 20:50:00,
2013-03-10 12:55:00,33.3,29.3,30.06,South,180,2.5,3.8,85,0.00,,,0.00,WUHU216HW,2013-03-10 20:55:00,
2013-03-10 13:00:00,33.5,29.3,30.06,SSE,158,2.7,3.4,85,0.00,,,0.00,WUHU216HW,2013-03-10 21:00:00,
2013-03-10 13:06:00,34.0,29.9,30.06,SE,135,0.9,3.1,85,0.00,,,0.00,WUHU216HW,2013-03-10 21:06:00,
2013-03-10 13:11:00,34.2,29.8,30.06,South,180,0.9,3.4,84,0.00,,,0.00,WUHU216HW,2013-03-10 21:11:00,
2013-03-10 13:16:00,34.6,30.2,30.06,South,180,3.4,3.4,84,0.00,,,0.00,WUHU216HW,2013-03-10 21:16:00,
2013-03-10 13:21:00,34.9,30.5,30.06,South,180,1.3,3.4,84,0.00,,,0.00,WUHU216HW,2013-03-10 21:21:00,
2013-03-10 13:26:00,34.9,30.5,30.06,South,180,2.5,3.6,84,0.00,,,0.00,WUHU216HW,2013-03-10 21:26:00,
2013-03-10 13:31:00,35.3,30.9,30.06,SSW,203,2.2,3.6,84,0.00,,,0.00,WUHU216HW,2013-03-10 21:31:00,
2013-03-10 13:36:00,34.9,30.3,30.06,SE,135,0.9,2.5,83,0.01,,,0.01,WUHU216HW,2013-03-10 21:36:00,
2013-03-10 13:41:00,34.7,30.1,30.06,SSW,203,1.3,2.0,83,0.01,,,0.01,WUHU216HW,2013-03-10 21:41:00,
2013-03-10 13:47:00,35.3,30.6,30.06,SSE,158,1.1,2.0,83,0.01,,,0.01,WUHU216HW,2013-03-10 21:47:00,
2013-03-10 13:52:00,36.0,31.3,30.06,SSE,158,0.2,1.8,83,0.01,,,0.01,WUHU216HW,2013-03-10 21:52:00,
2013-03-10 13:57:00,36.5,31.5,30.06,SSE,158,0.0,1.8,82,0.01,,,0.01,WUHU216HW,2013-03-10 21:57:00,
2013-03-10 14:02:00,36.9,31.9,30.06,East,90,0.0,1.1,82,0.01,,,0.01,WUHU216HW,2013-03-10 22:02:00,
2013-03-10 14:07:00,37.1,32.0,30.06,SSE,158,2.2,2.2,82,0.01,,,0.01,WUHU216HW,2013-03-10 22:07:00,
2013-03-10 14:12:00,37.3,32.0,30.06,NE,45,0.9,2.5,81,0.01,,,0.01,WUHU216HW,2013-03-10 22:12:00,
2013-03-10 14:17:00,37.3,31.7,30.07,ENE,68,0.9,2.9,80,0.02,,,0.02,WUHU216HW,2013-03-10 22:17:00,
2013-03-10 14:23:00,37.1,31.5,30.07,SE,135,1.8,2.9,80,0.02,,,0.02,WUHU216HW,2013-03-10 22:23:00,
2013-03-10 14:28:00,37.4,31.9,30.06,SE,135,1.3,1.8,80,0.02,,,0.02,WUHU216HW,2013-03-10 22:28:00,
2013-03-10 14:33:00,37.8,32.2,30.06,ENE,68,0.2,1.6,80,0.01,,,0.02,WUHU216HW,2013-03-10 22:33:00,
2013-03-10 14:38:00,38.2,32.6,30.06,NE,45,1.3,1.6,80,0.01,,,0.02,WUHU216HW,2013-03-10 22:38:00,
2013-03-10 14:43:00,38.2,32.6,30.07,NE,45,1.8,2.0,80,0.01,,,0.02,WUHU216HW,2013-03-10 22:43:00,
2013-03-10 14:48:00,38.2,32.6,30.07,East,90,1.3,2.0,80,0.01,,,0.02,WUHU216HW,2013-03-10 22:48:00,
2013-03-10 14:53:00,38.3,32.8,30.07,NE,45,2.2,2.2,80,0.01,,,0.02,WUHU216HW,2013-03-10 22:53:00,
2013-03-10 14:58:00,38.5,32.6,30.07,NE,45,1.8,2.5,79,0.01,,,0.02,WUHU216HW,2013-03-10 22:58:00,
2013-03-10 15:03:00,38.3,32.4,30.07,East,90,1.8,2.7,79,0.01,,,0.02,WUHU216HW,2013-03-10 23:03:00,
2013-03-10 15:09:00,38.3,32.4,30.07,North,0,3.4,3.4,79,0.01,,,0.02,WUHU216HW,2013-03-10 23:09:00,
2013-03-10 15:14:00,38.2,32.2,30.07,ENE,68,2.7,3.4,79,0.00,,,0.02,WUHU216HW,2013-03-10 23:14:00,
2013-03-10 15:19:00,38.2,32.2,30.07,NE,45,2.7,4.3,79,0.00,,,0.02,WUHU216HW,2013-03-10 23:19:00,
2013-03-10 15:24:00,38.2,32.2,30.08,NE,45,5.4,5.4,79,0.00,,,0.02,WUHU216HW,2013-03-10 23:24:00,
2013-03-10 15:26:00,38.2,32.2,30.07,NNE,23,4.7,5.4,79,0.00,,,0.02,WUHU216HW,2013-03-10 23:26:00,
2013-03-10 15:32:00,38.2,32.2,30.08,North,0,3.4,5.4,79,0.00,,,0.02,WUHU216HW,2013-03-10 23:32:00,
2013-03-10 15:37:00,38.2,32.0,30.08,North,0,4.7,4.7,78,0.00,,,0.02,WUHU216HW,2013-03-10 23:37:00,
2013-03-10 15:42:00,38.3,32.4,30.07,East,90,1.6,4.7,79,0.00,,,0.02,WUHU216HW,2013-03-10 23:42:00,
2013-03-10 15:47:00,38.5,32.6,30.08,NNE,23,4.0,4.7,79,0.00,,,0.02,WUHU216HW,2013-03-10 23:47:00,
2013-03-10 15:52:00,38.5,32.6,30.08,NNE,23,2.2,4.3,79,0.00,,,0.02,WUHU216HW,2013-03-10 23:52:00,
2013-03-10 15:57:00,38.9,32.9,30.08,ENE,68,2.0,4.0,79,0.00,,,0.02,WUHU216HW,2013-03-10 23:57:00,
2013-03-10 16:02:00,38.9,32.6,30.07,North,0,0.4,4.0,78,0.00,,,0.02,WUHU216HW,2013-03-11 00:02:00,
2013-03-10 16:07:00,39.2,32.9,30.08,NNE,23,3.8,4.0,78,0.00,,,0.02,WUHU216HW,2013-03-11 00:07:00,
2013-03-10 16:12:00,38.9,32.6,30.08,North,0,2.9,4.0,78,0.00,,,0.02,WUHU216HW,2013-03-11 00:12:00,
2013-03-10 16:17:00,39.1,32.8,30.08,NE,45,4.0,4.0,78,0.00,,,0.02,WUHU216HW,2013-03-11 00:17:00,
2013-03-10 16:22:00,38.7,32.5,30.08,NNE,23,2.0,4.7,78,0.00,,,0.02,WUHU216HW,2013-03-11 00:22:00,
2013-03-10 16:27:00,38.5,32.3,30.08,NE,45,3.1,4.7,78,0.00,,,0.02,WUHU216HW,2013-03-11 00:27:00,
2013-03-10 16:32:00,38.7,32.5,30.08,ESE,113,1.6,3.6,78,0.00,,,0.02,WUHU216HW,2013-03-11 00:32:00,
2013-03-10 16:37:00,38.5,32.3,30.08,ENE,68,0.4,3.1,78,0.00,,,0.02,WUHU216HW,2013-03-11 00:37:00,
2013-03-10 16:42:00,38.5,32.3,30.08,NNW,338,2.5,2.9,78,0.00,,,0.02,WUHU216HW,2013-03-11 00:42:00,
2013-03-10 16:47:00,37.8,31.2,30.08,North,0,2.2,2.9,77,0.00,,,0.02,WUHU216HW,2013-03-11 00:47:00,
2013-03-10 16:53:00,38.0,31.8,30.09,NE,45,3.1,3.1,78,0.00,,,0.02,WUHU216HW,2013-03-11 00:53:00,
2013-03-10 16:58:00,38.2,32.0,30.09,North,0,0.0,3.1,78,0.00,,,0.02,WUHU216HW,2013-03-11 00:58:00,
2013-03-10 17:03:00,38.0,31.8,30.09,North,0,0.0,3.1,78,0.00,,,0.02,WUHU216HW,2013-03-11 01:03:00,
2013-03-10 17:08:00,37.8,31.6,30.09,North,0,0.0,0.0,78,0.00,,,0.02,WUHU216HW,2013-03-11 01:08:00,
2013-03-10 17:13:00,37.8,31.6,30.09,North,0,0.0,0.0,78,0.00,,,0.02,WUHU216HW,2013-03-11 01:13:00,
2013-03-10 17:18:00,37.4,31.2,30.09,North,0,0.0,0.0,78,0.00,,,0.02,WUHU216HW,2013-03-11 01:18:00,
2013-03-10 17:23:00,37.1,30.9,30.09,North,0,0.0,0.0,78,0.00,,,0.02,WUHU216HW,2013-03-11 01:23:00,
2013-03-10 17:28:00,36.4,30.2,30.09,North,0,0.0,0.0,78,0.00,,,0.02,WUHU216HW,2013-03-11 01:28:00,
2013-03-10 17:33:00,36.2,30.2,30.09,North,0,0.0,0.0,79,0.00,,,0.02,WUHU216HW,2013-03-11 01:33:00,
2013-03-10 17:38:00,36.0,30.1,30.09,North,0,0.0,0.0,79,0.00,,,0.02,WUHU216HW,2013-03-11 01:38:00,
2013-03-10 17:43:00,35.8,30.2,30.09,North,0,0.0,0.0,80,0.00,,,0.02,WUHU216HW,2013-03-11 01:43:00,
2013-03-10 17:48:00,36.2,30.6,30.10,North,0,0.0,0.0,80,0.00,,,0.02,WUHU216HW,2013-03-11 01:48:00,
2013-03-10 17:53:00,36.2,30.6,30.10,North,0,0.0,0.0,80,0.00,,,0.02,WUHU216HW,2013-03-11 01:53:00,
2013-03-10 17:58:00,36.4,30.8,30.10,North,0,0.0,0.0,80,0.00,,,0.02,WUHU216HW,2013-03-11 01:58:00,
2013-03-10 18:03:00,36.5,31.0,30.10,North,0,0.0,0.0,80,0.00,,,0.02,WUHU216HW,2013-03-11 02:03:00,
2013-03-10 18:08:00,36.5,31.0,30.10,North,0,0.0,0.0,80,0.00,,,0.02,WUHU216HW,2013-03-11 02:08:00,
2013-03-10 18:13:00,36.4,30.4,30.10,North,0,1.6,1.6,79,0.00,,,0.02,WUHU216HW,2013-03-11 02:13:00,
2013-03-10 18:18:00,35.1,29.8,30.10,North,0,1.3,2.9,81,0.00,,,0.02,WUHU216HW,2013-03-11 02:18:00,
2013-03-10 18:23:00,34.6,29.5,30.10,NNE,23,2.0,2.9,82,0.00,,,0.02,WUHU216HW,2013-03-11 02:23:00,
2013-03-10 18:28:00,34.6,29.5,30.10,North,0,1.3,2.5,82,0.00,,,0.02,WUHU216HW,2013-03-11 02:28:00,
2013-03-10 18:33:00,34.4,29.3,30.10,NE,45,1.6,3.1,82,0.00,,,0.02,WUHU216HW,2013-03-11 02:33:00,
2013-03-10 18:38:00,33.8,29.2,30.11,NNW,338,2.9,6.3,83,0.00,,,0.02,WUHU216HW,2013-03-11 02:38:00,
2013-03-10 18:43:00,33.5,29.3,30.11,North,0,2.7,6.3,85,0.00,,,0.02,WUHU216HW,2013-03-11 02:43:00,
2013-03-10 18:48:00,33.3,29.5,30.11,NNW,338,1.8,5.6,86,0.00,,,0.02,WUHU216HW,2013-03-11 02:48:00,
2013-03-10 18:53:00,32.8,29.4,30.11,NNW,338,1.8,5.4,87,0.00,,,0.02,WUHU216HW,2013-03-11 02:53:00,
2013-03-10 18:58:00,32.8,29.9,30.11,NNW,338,1.8,5.4,89,0.00,,,0.02,WUHU216HW,2013-03-11 02:58:00,
2013-03-10 19:03:00,32.8,29.4,30.11,NNW,338,1.3,5.8,87,0.00,,,0.02,WUHU216HW,2013-03-11 03:03:00,
2013-03-10 19:08:00,32.8,29.4,30.11,NNW,338,2.5,7.2,87,0.00,,,0.02,WUHU216HW,2013-03-11 03:08:00,
2013-03-10 19:13:00,32.8,29.0,30.11,NNW,338,2.2,7.2,86,0.00,,,0.02,WUHU216HW,2013-03-11 03:13:00,
2013-03-10 19:18:00,32.8,29.0,30.11,NNW,338,1.8,3.4,86,0.00,,,0.02,WUHU216HW,2013-03-11 03:18:00,
2013-03-10 19:23:00,32.9,29.2,30.12,NNW,338,2.5,3.4,86,0.00,,,0.02,WUHU216HW,2013-03-11 03:23:00,
2013-03-10 19:28:00,32.9,29.2,30.12,NNW,338,1.1,3.4,86,0.00,,,0.02,WUHU216HW,2013-03-11 03:28:00,
2013-03-10 19:33:00,32.8,29.0,30.12,NNW,338,2.0,3.1,86,0.00,,,0.02,WUHU216HW,2013-03-11 03:33:00,
2013-03-10 19:38:00,32.8,29.4,30.12,NNW,338,2.5,2.5,87,0.00,,,0.02,WUHU216HW,2013-03-11 03:38:00,
2013-03-10 19:43:00,32.6,29.2,30.12,NNW,338,2.0,3.4,87,0.00,,,0.02,WUHU216HW,2013-03-11 03:43:00,
2013-03-10 19:48:00,32.2,29.1,30.13,NNW,338,2.0,3.4,88,0.00,,,0.02,WUHU216HW,2013-03-11 03:48:00,
2013-03-10 19:53:00,32.0,29.0,30.13,NNW,338,1.6,2.0,88,0.00,,,0.02,WUHU216HW,2013-03-11 03:53:00,
2013-03-10 19:58:00,31.9,28.8,30.13,NNW,338,1.8,2.5,88,0.00,,,0.02,WUHU216HW,2013-03-11 03:58:00,
2013-03-10 20:00:00,31.7,28.6,30.13,NNW,338,1.3,2.5,88,0.00,,,0.02,WUHU216HW,2013-03-11 04:00:00,
2013-03-10 20:05:00,31.5,28.5,30.14,North,0,0.0,2.0,88,0.00,,,0.02,WUHU216HW,2013-03-11 04:05:00,
2013-03-10 20:10:00,31.5,28.5,30.13,North,0,0.0,1.3,88,0.00,,,0.02,WUHU216HW,2013-03-11 04:10:00,
2013-03-10 20:15:00,31.3,28.3,30.14,North,0,0.0,0.0,88,0.00,,,0.02,WUHU216HW,2013-03-11 04:15:00,
2013-03-10 20:20:00,31.3,28.3,30.14,North,0,0.0,0.0,88,0.00,,,0.02,WUHU216HW,2013-03-11 04:20:00,
2013-03-10 20:25:00,31.3,27.9,30.14,North,0,0.0,0.0,87,0.00,,,0.02,WUHU216HW,2013-03-11 04:25:00,
2013-03-10 20:30:00,31.1,28.1,30.14,North,0,0.0,0.0,88,0.00,,,0.02,WUHU216HW,2013-03-11 04:30:00,
2013-03-10 20:35:00,31.0,28.2,30.14,North,0,0.0,0.0,89,0.00,,,0.02,WUHU216HW,2013-03-11 04:35:00,
2013-03-10 20:40:00,30.8,27.7,30.14,North,0,0.0,0.0,88,0.00,,,0.02,WUHU216HW,2013-03-11 04:40:00,
2013-03-10 20:45:00,30.6,27.6,30.15,North,0,0.0,0.0,88,0.00,,,0.02,WUHU216HW,2013-03-11 04:45:00,
2013-03-10 20:50:00,30.6,27.6,30.15,North,0,0.0,0.0,88,0.00,,,0.02,WUHU216HW,2013-03-11 04:50:00,
2013-03-10 20:55:00,30.4,27.4,30.15,North,0,0.0,0.0,88,0.00,,,0.02,WUHU216HW,2013-03-11 04:55:00,
2013-03-10 21:00:00,30.2,27.2,30.15,North,0,0.0,0.0,88,0.00,,,0.02,WUHU216HW,2013-03-11 05:00:00,
2013-03-10 21:05:00,29.9,26.8,30.16,North,0,0.0,0.0,88,0.00,,,0.02,WUHU216HW,2013-03-11 05:05:00,
2013-03-10 21:10:00,30.1,27.0,30.16,North,0,0.0,0.0,88,0.00,,,0.02,WUHU216HW,2013-03-11 05:10:00,
2013-03-10 21:15:00,30.1,27.0,30.16,North,0,0.0,0.0,88,0.00,,,0.02,WUHU216HW,2013-03-11 05:15:00,
2013-03-10 21:20:00,30.1,27.0,30.16,North,0,0.0,0.0,88,0.00,,,0.02,WUHU216HW,2013-03-11 05:20:00,
2013-03-10 21:25:00,30.1,27.0,30.16,NNW,338,0.9,1.1,88,0.00,,,0.02,WUHU216HW,2013-03-11 05:25:00,
2013-03-10 21:30:00,30.1,27.0,30.16,NNW,338,2.2,2.2,88,0.00,,,0.02,WUHU216HW,2013-03-11 05:30:00,
2013-03-10 21:35:00,30.2,27.5,30.16,NNW,338,1.8,2.5,89,0.00,,,0.02,WUHU216HW,2013-03-11 05:35:00,
2013-03-10 21:40:00,30.2,27.5,30.17,NNW,338,1.6,2.5,89,0.00,,,0.02,WUHU216HW,2013-03-11 05:40:00,
2013-03-10 21:45:00,30.2,27.5,30.17,NNW,338,2.2,2.5,89,0.00,,,0.02,WUHU216HW,2013-03-11 05:45:00,
2013-03-10 21:50:00,30.2,27.5,30.17,NNW,338,2.7,2.7,89,0.00,,,0.02,WUHU216HW,2013-03-11 05:50:00,
2013-03-10 21:55:00,30.2,27.7,30.17,NNW,338,2.5,3.1,90,0.00,,,0.02,WUHU216HW,2013-03-11 05:55:00,
2013-03-10 22:00:00,30.2,27.7,30.17,NNW,338,1.8,3.1,90,0.00,,,0.02,WUHU216HW,2013-03-11 06:00:00,
2013-03-10 22:05:00,30.2,27.7,30.17,NNW,338,2.5,2.9,90,0.00,,,0.02,WUHU216HW,2013-03-11 06:05:00,
2013-03-10 22:10:00,30.1,27.3,30.17,NNW,338,3.8,3.8,89,0.00,,,0.02,WUHU216HW,2013-03-11 06:10:00,
2013-03-10 22:15:00,30.1,27.3,30.17,NNW,338,3.1,3.8,89,0.00,,,0.02,WUHU216HW,2013-03-11 06:15:00,
2013-03-10 22:20:00,30.1,27.5,30.17,NNW,338,3.4,3.4,90,0.00,,,0.02,WUHU216HW,2013-03-11 06:20:00,
2013-03-10 22:25:00,30.2,27.5,30.18,NNW,338,1.1,3.8,89,0.00,,,0.02,WUHU216HW,2013-03-11 06:25:00,
2013-03-10 22:30:00,30.1,27.3,30.17,NNW,338,1.8,3.8,89,0.00,,,0.02,WUHU216HW,2013-03-11 06:30:00,
2013-03-10 22:35:00,30.2,27.5,30.18,NNW,338,2.2,3.4,89,0.00,,,0.02,WUHU216HW,2013-03-11 06:35:00,
2013-03-10 22:40:00,30.2,27.5,30.18,NNW,338,1.3,3.4,89,0.00,,,0.02,WUHU216HW,2013-03-11 06:40:00,
2013-03-10 22:45:00,30.2,27.5,30.18,NNW,338,1.8,3.1,89,0.00,,,0.02,WUHU216HW,2013-03-11 06:45:00,
2013-03-10 22:50:00,30.2,27.5,30.18,NNW,338,1.1,3.1,89,0.00,,,0.02,WUHU216HW,2013-03-11 06:50:00,
2013-03-10 22:55:00,30.1,27.3,30.18,NNW,338,1.8,2.0,89,0.00,,,0.02,WUHU216HW,2013-03-11 06:55:00,
2013-03-10 23:00:00,30.1,27.3,30.18,NNW,338,1.8,1.8,89,0.00,,,0.02,WUHU216HW,2013-03-11 07:00:00,
2013-03-10 23:05:00,30.2,27.5,30.18,NNW,338,1.8,1.8,89,0.00,,,0.02,WUHU216HW,2013-03-11 07:05:00,
2013-03-10 23:10:00,30.1,27.5,30.19,NNW,338,2.2,2.2,90,0.00,,,0.02,WUHU216HW,2013-03-11 07:10:00,
2013-03-10 23:15:00,30.1,27.3,30.19,NNW,338,1.1,2.5,89,0.00,,,0.02,WUHU216HW,2013-03-11 07:15:00,
2013-03-10 23:20:00,30.1,27.3,30.19,NNW,338,0.7,2.5,89,0.00,,,0.02,WUHU216HW,2013-03-11 07:20:00,
2013-03-10 23:25:00,30.1,27.3,30.19,NNW,338,1.1,1.1,89,0.00,,,0.02,WUHU216HW,2013-03-11 07:25:00,
2013-03-10 23:30:00,30.1,27.3,30.19,NNW,338,1.1,1.3,89,0.00,,,0.02,WUHU216HW,2013-03-11 07:30:00,
2013-03-10 23:35:00,30.1,27.3,30.19,NNW,338,1.1,1.3,89,0.00,,,0.02,WUHU216HW,2013-03-11 07:35:00,
2013-03-10 23:40:00,30.1,27.3,30.19,NNW,338,0.7,1.3,89,0.00,,,0.02,WUHU216HW,2013-03-11 07:40:00,
2013-03-10 23:45:00,30.1,27.3,30.19,NNW,338,2.2,2.5,89,0.00,,,0.02,WUHU216HW,2013-03-11 07:45:00,
2013-03-10 23:50:00,30.1,27.3,30.19,NNW,338,0.4,2.5,89,0.00,,,0.02,WUHU216HW,2013-03-11 07:50:00,
2013-03-10 23:55:00,30.1,27.5,30.19,NNW,338,2.0,2.0,90,0.00,,,0.02,WUHU216HW,2013-03-11 07:55:00,